Change the Weather History Date:

Saturday, March 9, 2013

  Actual Average Record
Temperature  
Mean Temperature 48 °F -  
Max Temperature 63 °F 61 °F 85 °F (1974)
Min Temperature 33 °F 39 °F 22 °F (1960)
Degree Days  
Heating Degree Days 17    
Moisture  
Dew Point 28 °F    
Average Humidity 51    
Maximum Humidity 73    
Minimum Humidity 27    
Precipitation  
Precipitation 0.00 in - - ()
Sea Level Pressure  
Sea Level Pressure 30.30 in    
Wind  
Wind Speed 4 mph (NNE)    
Max Wind Speed 8 mph    
Max Gust Speed -    
Visibility 10 miles    
Events      
Averages and records for this station are not official NWS values.
T = Trace of Precipitation, MM = Missing Value Source: NWS Daily Summary

Daily Weather History Graph

Daily Weather History Graph

Search for Another Location

Airport or City:

Trip Planner

Search our weather history database for the weather conditions in past years. The results will help you decide how hot, cold, wet, or windy it might be!

Date:

Astronomy

Mar. 09, 2013 Rise Set
Actual Time 6:42 AM EST 6:27 PM EST
Civil Twilight 6:17 AM EST 6:52 PM EST
Nautical Twilight 5:48 AM EST 7:21 PM EST
Astronomical Twilight 5:18 AM EST 7:51 PM EST
Moon 5:01 AM EST (3/9) 4:30 PM EST (3/9)
Length of Visible Light 12h 34m
Length of Day
11h 44m
Waning Crescent, 5% of the Moon is Illuminated
Mar 9
Waning Crescent
Mar 11
New
Mar 19
First Quarter
Mar 27
Full
Apr 3
Last Quarter

Hourly Weather History & Observations

Time (EST) Temp. Windchill Dew Point Humidity Pressure Visibility Wind Dir Wind Speed Gust Speed Precip Events Conditions
12:54 AM 39.9 °F 36.7 °F 25.0 °F 55% 30.30 in 10.0 mi ENE 4.6 mph - N/A   Clear
1:54 AM 37.0 °F 32.4 °F 25.0 °F 62% 30.31 in 10.0 mi NNE 5.8 mph - N/A   Clear
2:54 AM 36.0 °F 33.3 °F 25.0 °F 64% 30.30 in 10.0 mi NNE 3.5 mph - N/A   Clear
3:54 AM 37.0 °F 32.4 °F 26.1 °F 65% 30.30 in 10.0 mi NNE 5.8 mph - N/A   Clear
4:54 AM 34.0 °F 29.8 °F 25.0 °F 70% 30.30 in 10.0 mi NNE 4.6 mph - N/A   Clear
5:54 AM 36.0 °F 31.1 °F 25.0 °F 64% 30.31 in 10.0 mi NNE 5.8 mph - N/A   Clear
6:54 AM 33.1 °F 30.0 °F 25.0 °F 72% 30.33 in 10.0 mi NE 3.5 mph - N/A   Clear
7:54 AM 39.9 °F 36.7 °F 27.0 °F 60% 30.35 in 10.0 mi NE 4.6 mph - N/A   Clear
8:54 AM 46.9 °F - 28.0 °F 48% 30.36 in 10.0 mi NE 8.1 mph - N/A   Clear
9:54 AM 50.0 °F - 28.0 °F 43% 30.36 in 10.0 mi Variable 5.8 mph - N/A   Clear
10:54 AM 53.1 °F - 28.9 °F 40% 30.35 in 10.0 mi Variable 4.6 mph - N/A   Clear
11:54 AM 55.9 °F - 28.0 °F 34% 30.34 in 10.0 mi Variable 4.6 mph - N/A   Clear
12:54 PM 59.0 °F - 28.9 °F 32% 30.32 in 10.0 mi NNW 5.8 mph - N/A   Clear
1:54 PM 60.1 °F - 30.0 °F 32% 30.29 in 10.0 mi Variable 4.6 mph - N/A   Clear
2:54 PM 62.1 °F - 28.9 °F 29% 30.26 in 10.0 mi Calm Calm - N/A   Clear
3:54 PM 63.0 °F - 28.0 °F 27% 30.25 in 10.0 mi Calm Calm - N/A   Clear
4:54 PM 63.0 °F - 28.0 °F 27% 30.24 in 10.0 mi NNE 5.8 mph - N/A   Clear
5:54 PM 61.0 °F - 27.0 °F 27% 30.25 in 10.0 mi NNW 3.5 mph - N/A   Clear
6:54 PM 53.1 °F - 30.0 °F 41% 30.27 in 10.0 mi Calm Calm - N/A   Clear
7:54 PM 46.9 °F - 32.0 °F 56% 30.27 in 10.0 mi Calm Calm - N/A   Clear
8:54 PM 45.0 °F - 32.0 °F 60% 30.28 in 10.0 mi Calm Calm - N/A   Clear
9:54 PM 45.0 °F - 33.1 °F 63% 30.29 in 10.0 mi Calm Calm - N/A   Clear
10:54 PM 39.9 °F - 32.0 °F 73% 30.29 in 10.0 mi Calm Calm - N/A   Clear
11:54 PM 45.0 °F - 35.1 °F 68% 30.28 in 10.0 mi Calm Calm - N/A   Clear